Location: Westminster
(33.3626°N, 96.4619°W)
Time: 21:10:27
(UTC+00:00)

OE (NEXTSAT) - Pass Details

Date: 03 December 2021
Orbit: 416 x 425 km, 46.0° (Epoch: 26 January)

Event Time Altitude Azimuth Distance (km) Brightness Sun altitude
Exits shadow 12:11:03 22° 300° (WNW) 963 5.5 -12.9°
Maximum altitude 12:13:04 77° 216° (SW) 438 4.2 -12.5°
Drops below altitude 10° 12:16:28 10° 131° (SE) 1,508 8.3 -11.8°
Sets 12:18:35 0° 130° (SE) 2,373 9.5 -11.4°
